Location: Toronto
(43.6672°N, 79.4170°W)
Time: 10:01:47
(UTC-05:00)

ISS - All Passes

Search period start: 03 March 2015 00:00
Search period end: 13 March 2015 01:00
Orbit: 397 x 407 km, 51.6° (Epoch: 03 March)

Date Brightness Start Highest point End Pass type
(mag) Time Alt. Az. Time Alt. Az. Time Alt. Az.
03 Mar - 09:09:31 10° SW 09:12:41 58° SE 09:15:53 10° ENE daylight
03 Mar - 10:46:25 10° W 10:49:17 29° NNW 10:52:10 10° NE daylight
03 Mar - 12:23:58 10° NW 12:26:25 19° N 12:28:52 10° NE daylight
03 Mar - 14:00:27 10° NW 14:03:29 36° NNE 14:06:31 10° E daylight
03 Mar - 15:36:53 10° WNW 15:39:55 37° SW 15:42:56 10° SSE daylight
04 Mar - 08:16:52 10° SSW 08:19:44 30° SE 08:22:38 10° ENE daylight
04 Mar - 09:53:01 10° W 09:56:06 40° NNW 09:59:11 10° NE daylight
04 Mar - 11:30:39 10° NW 11:33:07 20° N 11:35:35 10° NE daylight
04 Mar - 13:07:27 10° NW 13:10:16 26° NNE 13:13:05 10° ENE daylight
04 Mar - 14:43:42 10° WNW 14:46:56 71° SW 14:50:09 10° SE daylight
05 Mar - 07:24:42 10° S 07:26:49 17° SE 07:29:00 10° E daylight
05 Mar - 08:59:44 10° WSW 09:02:56 66° NNW 09:06:10 10° NE daylight
05 Mar - 10:37:11 10° WNW 10:39:48 22° N 10:42:25 10° NE daylight
05 Mar - 12:14:22 10° NW 12:16:58 22° N 12:19:34 10° ENE daylight
05 Mar - 13:50:37 10° NW 13:53:50 64° NNE 13:57:04 10° ESE daylight
05 Mar - 15:27:44 10° W 15:29:58 17° SW 15:32:10 10° S daylight
06 Mar - 08:06:38 10° SW 08:09:50 69° SE 08:13:03 10° ENE daylight
06 Mar - 09:43:40 10° WNW 09:46:29 27° NNW 09:49:18 10° NE daylight
06 Mar - 11:21:09 10° NW 11:23:37 20° N 11:26:05 10° NE daylight
06 Mar - 12:57:33 10° NW 13:00:39 40° NNE 13:03:43 10° E daylight
06 Mar - 14:34:05 10° WNW 14:37:01 31° SW 14:39:56 10° SSE daylight
07 Mar - 07:13:47 10° SSW 07:16:46 36° SE 07:19:47 10° ENE daylight
07 Mar - 08:50:09 10° W 08:53:11 36° NNW 08:56:14 10° NE daylight
07 Mar - 10:27:47 10° NW 10:30:14 19° N 10:32:41 10° NE daylight
07 Mar - 12:04:30 10° NW 12:07:21 28° NNE 12:10:14 10° E daylight
07 Mar - 13:40:46 10° WNW 13:43:57 60° SW 13:47:09 10° SE daylight
08 Mar - 07:21:22 10° S 07:23:45 19° SE 07:26:11 10° E daylight
08 Mar - 08:56:44 10° WSW 08:59:56 58° NNW 09:03:08 10° NE daylight
08 Mar - 10:34:15 10° WNW 10:36:49 21° N 10:39:23 10° NE daylight
08 Mar - 12:11:21 10° NW 12:13:59 23° NNE 12:16:39 10° ENE daylight
08 Mar - 13:47:34 10° NW 13:50:48 74° NNE 13:54:02 10° ESE daylight
08 Mar - 15:24:56 10° W 15:26:53 15° SW 15:28:44 10° S daylight
09 Mar - 06:30:16 10° SE 06:30:45 10° SE 06:31:22 10° ESE visible
09 Mar - 08:03:29 10° SW 08:06:42 81° SSE 08:09:57 10° ENE daylight
09 Mar - 09:40:38 10° WNW 09:43:25 25° NNW 09:46:10 10° NE daylight
09 Mar - 11:18:05 10° NW 11:20:34 20° N 11:23:03 10° NE daylight
09 Mar - 12:54:25 10° NW 12:57:33 44° NNE 13:00:39 10° E daylight
09 Mar - 14:31:02 10° WNW 14:33:51 27° SW 14:36:37 10° SSE daylight
10 Mar - 07:10:28 10° SSW 07:13:32 42° SE 07:16:37 10° ENE visible
10 Mar - 08:47:01 10° W 08:50:00 33° NNW 08:53:00 10° NE daylight
10 Mar - 10:24:38 10° NW 10:27:05 19° N 10:29:31 10° NE daylight
10 Mar - 12:01:15 10° NW 12:04:10 30° NNE 12:07:06 10° E daylight
10 Mar - 13:37:34 10° WNW 13:40:43 51° SW 13:43:52 10° SE daylight
11 Mar - 06:17:50 10° S 06:20:24 22° SE 06:23:02 10° E visible
11 Mar - 07:53:29 10° WSW 07:56:39 51° NNW 07:59:49 10° NE daylight
11 Mar - 09:31:02 10° WNW 09:33:35 20° N 09:36:06 10° NE daylight
11 Mar - 11:08:02 10° NW 11:10:44 24° NNE 11:13:26 10° ENE daylight
11 Mar - 12:44:15 10° WNW 12:47:30 85° NE 12:50:43 10° ESE daylight
11 Mar - 14:21:58 10° WSW 14:23:30 13° SW 14:24:57 10° SSW daylight
12 Mar - 05:25:59 10° SSE 05:27:19 12° SE 05:28:44 10° ESE visible
12 Mar - 07:00:05 10° WSW 07:03:19 88° NW 07:06:34 10° ENE visible
12 Mar - 08:37:21 10° WNW 08:40:04 24° NNW 08:42:46 10° NE daylight
12 Mar - 10:14:42 10° NW 10:17:13 20° N 10:19:44 10° ENE daylight
12 Mar - 11:50:59 10° NW 11:54:09 49° NNE 11:57:19 10° ESE daylight
12 Mar - 13:27:44 10° W 13:30:24 23° SW 13:33:01 10° S daylight
